Camanche, IA

2:13 PM CDT on September 25, 2016 (GMT -0500)
Clinton Municipal

Weather History for KCWI - April, 2012

Change the Weather History Date:

Saturday, April 21, 2012

  Actual Average Record
Temperature  
Mean Temperature 43 °F -  
Max Temperature 53 °F 65 °F 87 °F (1985)
Min Temperature 33 °F 43 °F 27 °F (1988)
Degree Days  
Heating Degree Days 22    
Moisture  
Dew Point 33 °F    
Average Humidity 65    
Maximum Humidity 87    
Minimum Humidity 41    
Precipitation  
Precipitation 0.00 in - - ()
Sea Level Pressure  
Sea Level Pressure 30.05 in    
Wind  
Wind Speed 2 mph (ESE)    
Max Wind Speed 7 mph    
Max Gust Speed -    
Visibility 10 miles    
Events      
Averages and records for this station are not official NWS values.
T = Trace of Precipitation, MM = Missing Value Source: NWS Daily Summary

Daily Weather History Graph

Daily Weather History Graph

Search for Another Location

Airport or City:

Trip Planner

Search our weather history database for the weather conditions in past years. The results will help you decide how hot, cold, wet, or windy it might be!

Date:

Astronomy

Apr. 21, 2012 Rise Set
Actual Time 6:11 AM CDT 7:49 PM CDT
Civil Twilight 5:41 AM CDT 8:18 PM CDT
Nautical Twilight 5:06 AM CDT 8:54 PM CDT
Astronomical Twilight 4:28 AM CDT 9:32 PM CDT
Moon 6:06 AM CDT (4/21) 8:32 PM CDT (4/21)
Length of Visible Light 14h 37m
Length of Day
13h 38m
New Moon, 0% of the Moon is Illuminated
Apr 21
New Moon
Apr 29
First Quarter
May 5
Full
May 12
Last Quarter
May 20
New

Hourly Weather History & Observations

Time (CDT) Temp. Windchill Dew Point Humidity Pressure Visibility Wind Dir Wind Speed Gust Speed Precip Events Conditions
12:15 AM 37.4 °F - 33.8 °F 87% 30.07 in 10.0 mi Calm Calm - N/A   Clear
12:35 AM 37.4 °F - 33.8 °F 87% 30.07 in 10.0 mi Calm Calm - N/A   Clear
12:55 AM 35.6 °F - 32.0 °F 87% 30.07 in 10.0 mi Calm Calm - N/A   Clear
1:15 AM 35.6 °F - 32.0 °F 87% 30.07 in 10.0 mi Calm Calm - N/A   Clear
1:35 AM 35.6 °F - 30.2 °F 81% 30.08 in 10.0 mi Calm Calm - N/A   Clear
1:55 AM 35.6 °F - 32.0 °F 87% 30.07 in 10.0 mi Calm Calm - N/A   Clear
2:15 AM 33.8 °F - 30.2 °F 87% 30.07 in 10.0 mi Calm Calm - N/A   Clear
2:35 AM 33.8 °F 30.8 °F 30.2 °F 87% 30.06 in 9.0 mi ENE 3.5 mph - N/A   Clear
2:55 AM 33.8 °F 30.8 °F 30.2 °F 87% 30.06 in 10.0 mi ENE 3.5 mph - N/A   Clear
3:15 AM 33.8 °F 30.8 °F 30.2 °F 87% 30.06 in 10.0 mi East 3.5 mph - N/A   Clear
3:35 AM 33.8 °F - 30.2 °F 87% 30.07 in 10.0 mi Calm Calm - N/A   Partly Cloudy
3:55 AM 33.8 °F 27.7 °F 30.2 °F 87% 30.07 in 10.0 mi East 6.9 mph - N/A   Mostly Cloudy
4:15 AM 33.8 °F 28.6 °F 28.4 °F 81% 30.07 in 10.0 mi East 5.8 mph - N/A   Scattered Clouds
4:35 AM 33.8 °F 29.6 °F 30.2 °F 87% 30.07 in 10.0 mi East 4.6 mph - N/A   Clear
4:55 AM 33.8 °F 29.6 °F 30.2 °F 87% 30.07 in 10.0 mi East 4.6 mph - N/A   Mostly Cloudy
5:15 AM 35.6 °F 31.7 °F 30.2 °F 81% 30.07 in 10.0 mi East 4.6 mph - N/A   Overcast
5:35 AM 35.6 °F 32.8 °F 30.2 °F 81% 30.07 in 10.0 mi ESE 3.5 mph - N/A   Overcast
5:55 AM 37.4 °F 34.9 °F 30.2 °F 75% 30.08 in 10.0 mi ESE 3.5 mph - N/A   Overcast
6:15 AM 37.4 °F 33.8 °F 32.0 °F 81% 30.08 in 10.0 mi ESE 4.6 mph - N/A   Overcast
6:35 AM 37.4 °F 33.8 °F 32.0 °F 81% 30.08 in 10.0 mi ESE 4.6 mph - N/A   Overcast
6:55 AM 37.4 °F 34.9 °F 32.0 °F 81% 30.09 in 10.0 mi ESE 3.5 mph - N/A   Mostly Cloudy
7:15 AM 39.2 °F - 33.8 °F 81% 30.09 in 7.0 mi Calm Calm - N/A   Partly Cloudy
7:35 AM 41.0 °F 39.0 °F 33.8 °F 76% 30.10 in 10.0 mi SE 3.5 mph - N/A   Clear
7:55 AM 42.8 °F 40.1 °F 32.0 °F 66% 30.10 in 10.0 mi ESE 4.6 mph - N/A   Clear
8:15 AM 42.8 °F 40.1 °F 32.0 °F 66% 30.10 in 10.0 mi SE 4.6 mph - N/A   Clear
8:35 AM 42.8 °F 41.1 °F 32.0 °F 66% 30.10 in 10.0 mi ESE 3.5 mph - N/A   Clear
8:55 AM 42.8 °F - 32.0 °F 66% 30.10 in 10.0 mi Calm Calm - N/A   Partly Cloudy
9:15 AM 44.6 °F - 32.0 °F 61% 30.10 in 10.0 mi Calm Calm - N/A   Mostly Cloudy
9:35 AM 44.6 °F - 30.2 °F 57% 30.09 in 10.0 mi Calm Calm - N/A   Mostly Cloudy
9:55 AM 46.4 °F 45.2 °F 32.0 °F 57% 30.09 in 10.0 mi ENE 3.5 mph - N/A   Partly Cloudy
10:15 AM 46.4 °F - 32.0 °F 57% 30.10 in 10.0 mi Calm Calm - N/A   Clear
10:35 AM 46.4 °F - 32.0 °F 57% 30.10 in 10.0 mi Calm Calm - N/A   Partly Cloudy
10:55 AM 48.2 °F - 33.8 °F 58% 30.09 in 10.0 mi Calm Calm - N/A   Scattered Clouds
11:15 AM 48.2 °F - 33.8 °F 58% 30.09 in 10.0 mi NW 3.5 mph - N/A   Clear
11:35 AM 48.2 °F - 33.8 °F 58% 30.09 in 10.0 mi Calm Calm - N/A   Clear
11:55 AM 48.2 °F - 35.6 °F 62% 30.08 in 10.0 mi ENE 3.5 mph - N/A   Clear
12:15 PM 50.0 °F - 35.6 °F 58% 30.08 in 10.0 mi Calm Calm - N/A   Scattered Clouds
12:35 PM 51.8 °F - 35.6 °F 54% 30.07 in 10.0 mi NE 3.5 mph - N/A   Scattered Clouds
12:55 PM 51.8 °F - 35.6 °F 54% 30.07 in 10.0 mi Calm Calm - N/A   Scattered Clouds
1:35 PM 51.8 °F - 33.8 °F 50% 30.05 in 10.0 mi NW 4.6 mph - N/A   Scattered Clouds
1:55 PM 51.8 °F - 35.6 °F 54% 30.05 in 10.0 mi ENE 5.8 mph - N/A   Mostly Cloudy
2:15 PM 51.8 °F - 33.8 °F 50% 30.04 in 10.0 mi SSE 3.5 mph - N/A   Mostly Cloudy
2:35 PM 53.6 °F - 35.6 °F 51% 30.04 in 10.0 mi ESE 5.8 mph - N/A   Overcast
2:55 PM 53.6 °F - 33.8 °F 47% 30.03 in 9.0 mi ESE 5.8 mph - N/A   Overcast
3:15 PM 53.6 °F - 32.0 °F 44% 30.03 in 10.0 mi WSW 3.5 mph - N/A   Mostly Cloudy
3:35 PM 53.6 °F - 32.0 °F 44% 30.02 in 10.0 mi Calm Calm - N/A   Scattered Clouds
3:55 PM 53.6 °F - 32.0 °F 44% 30.01 in 10.0 mi SW 5.8 mph - N/A   Mostly Cloudy
4:15 PM 53.6 °F - 32.0 °F 44% 30.01 in 10.0 mi SSE 6.9 mph - N/A   Mostly Cloudy
4:35 PM 53.6 °F - 30.2 °F 41% 30.00 in 10.0 mi SW 3.5 mph - N/A   Mostly Cloudy
4:55 PM 53.6 °F - 32.0 °F 44% 30.00 in 10.0 mi Calm Calm - N/A   Mostly Cloudy
5:15 PM 53.6 °F - 30.2 °F 41% 30.00 in 10.0 mi Calm Calm - N/A   Mostly Cloudy
5:35 PM 53.6 °F - 32.0 °F 44% 30.00 in 10.0 mi Calm Calm - N/A   Mostly Cloudy
5:55 PM 53.6 °F - 30.2 °F 41% 30.00 in 10.0 mi Calm Calm - N/A   Mostly Cloudy
6:15 PM 53.6 °F - 33.8 °F 47% 30.00 in 10.0 mi SE 5.8 mph - N/A   Mostly Cloudy
6:35 PM 51.8 °F - 33.8 °F 50% 30.00 in 10.0 mi Calm Calm - N/A   Mostly Cloudy
6:55 PM 51.8 °F - 33.8 °F 50% 30.00 in 10.0 mi Calm Calm - N/A   Scattered Clouds
7:15 PM 51.8 °F - 33.8 °F 50% 30.00 in 10.0 mi SSW 4.6 mph - N/A   Mostly Cloudy
7:35 PM 50.0 °F - 33.8 °F 54% 30.00 in 10.0 mi WSW 5.8 mph - N/A   Overcast
7:55 PM 50.0 °F - 35.6 °F 58% 30.00 in 10.0 mi SW 4.6 mph - N/A   Overcast
8:15 PM 48.2 °F - 35.6 °F 62% 30.00 in 10.0 mi SW 4.6 mph - N/A   Mostly Cloudy
8:35 PM 48.2 °F - 37.4 °F 66% 30.01 in 10.0 mi Calm Calm - N/A   Mostly Cloudy
8:55 PM 50.0 °F - 37.4 °F 62% 30.01 in 10.0 mi Calm Calm - N/A   Overcast
9:15 PM 50.0 °F - 37.4 °F 62% 30.01 in 10.0 mi Calm Calm - N/A   Overcast
9:35 PM 48.2 °F - 39.2 °F 71% 30.01 in 10.0 mi Calm Calm - N/A   Overcast
9:55 PM 48.2 °F - 37.4 °F 66% 30.01 in 10.0 mi Calm Calm - N/A   Overcast
10:15 PM 48.2 °F - 39.2 °F 71% 30.00 in 10.0 mi Calm Calm - N/A   Overcast
10:35 PM 48.2 °F - 39.2 °F 71% 30.00 in 10.0 mi Calm Calm - N/A   Overcast
11:15 PM 48.2 °F - 39.2 °F 71% 29.99 in 10.0 mi East 5.8 mph - N/A   Overcast
11:35 PM 48.2 °F - 37.4 °F 66% 30.00 in 10.0 mi Calm Calm - N/A   Overcast
11:55 PM 48.2 °F - 35.6 °F 62% 29.99 in 10.0 mi ESE 4.6 mph - N/A   Overcast